TimeCST,TemperatureF,Dew PointF,Humidity,Sea Level PressureIn,VisibilityMPH,Wind Direction,Wind SpeedMPH,Gust SpeedMPH,PrecipitationIn,Events,Conditions,WindDirDegrees,DateUTC
12:55 AM,60.8,60.8,100,29.88,4.0,ESE,4.6,-,N/A,,Partly Cloudy,120,2012-12-09 06:55:00
1:15 AM,60.8,60.8,100,29.88,3.0,SE,5.8,-,N/A,,Scattered Clouds,130,2012-12-09 07:15:00
1:35 AM,60.8,60.8,100,29.88,7.0,SE,5.8,-,N/A,,Overcast,130,2012-12-09 07:35:00
1:55 AM,60.8,60.8,100,29.87,8.0,SE,5.8,-,N/A,,Overcast,140,2012-12-09 07:55:00
2:15 AM,60.8,60.8,100,29.87,10.0,SE,5.8,-,N/A,,Mostly Cloudy,140,2012-12-09 08:15:00
2:35 AM,62.6,60.8,94,29.86,10.0,SSE,6.9,-,N/A,,Scattered Clouds,150,2012-12-09 08:35:00
2:55 AM,62.6,60.8,94,29.85,10.0,SSE,6.9,-,N/A,,Scattered Clouds,150,2012-12-09 08:55:00
3:55 AM,62.6,60.8,94,29.85,10.0,SSE,5.8,-,N/A,,Mostly Cloudy,160,2012-12-09 09:55:00
4:55 AM,64.4,62.6,94,29.84,10.0,South,6.9,-,N/A,,Overcast,170,2012-12-09 10:55:00
5:55 AM,64.4,62.6,94,29.87,5.0,Variable,4.6,-,N/A,Rain-Thunderstorm,Thunderstorms and Rain,0,2012-12-09 11:55:00
6:55 AM,62.6,60.8,94,29.88,10.0,Variable,6.9,-,N/A,Rain,Light Rain,0,2012-12-09 12:55:00
7:55 AM,62.6,62.6,100,29.87,6.0,SSE,10.4,-,N/A,Rain,Light Rain,160,2012-12-09 13:55:00
8:55 AM,62.6,62.6,100,29.90,4.0,Calm,Calm,-,N/A,Rain,Light Rain,0,2012-12-09 14:55:00
9:55 AM,64.4,62.6,94,29.91,4.0,South,4.6,-,N/A,Rain,Light Rain,190,2012-12-09 15:55:00
10:55 AM,64.4,62.6,94,29.89,6.0,South,8.1,-,N/A,Rain,Light Rain,170,2012-12-09 16:55:00
11:55 AM,64.4,60.8,88,29.86,10.0,SSW,9.2,-,N/A,,Overcast,200,2012-12-09 17:55:00
12:55 PM,66.2,62.6,88,29.84,10.0,Variable,5.8,-,N/A,,Overcast,0,2012-12-09 18:55:00
1:55 PM,69.8,62.6,78,29.81,10.0,South,8.1,-,N/A,,Overcast,180,2012-12-09 19:55:00
2:55 PM,69.8,62.6,78,29.80,10.0,South,8.1,-,N/A,,Overcast,170,2012-12-09 20:55:00
3:55 PM,66.2,64.4,94,29.79,5.0,Variable,4.6,-,N/A,Rain,Light Rain,0,2012-12-09 21:55:00
4:55 PM,68.0,64.4,88,29.77,10.0,South,11.5,-,N/A,,Partly Cloudy,190,2012-12-09 22:55:00
5:55 PM,68.0,64.4,88,29.78,10.0,South,10.4,-,N/A,,Mostly Cloudy,190,2012-12-09 23:55:00
6:55 PM,68.0,64.4,88,29.78,10.0,South,6.9,-,N/A,,Mostly Cloudy,170,2012-12-10 00:55:00
7:55 PM,69.8,64.4,83,29.77,10.0,SSW,6.9,-,N/A,,Overcast,200,2012-12-10 01:55:00
8:55 PM,68.0,64.4,88,29.79,10.0,WNW,18.4,-,N/A,,Mostly Cloudy,300,2012-12-10 02:55:00
9:55 PM,60.8,60.8,100,29.80,4.0,West,9.2,-,N/A,,Overcast,260,2012-12-10 03:55:00
10:55 PM,60.8,60.8,100,29.79,10.0,NW,9.2,-,N/A,,Overcast,320,2012-12-10 04:55:00
11:55 PM,57.2,55.4,94,29.81,9.0,NNW,13.8,-,N/A,,Overcast,330,2012-12-10 05:55:00